Weather Roundup
Issued by NWS Springfield, MO

Home | Current Version | Previous Version | Text Only | Print | Product List | Glossary On
Versions: 1 2 3 4 5 6 7 8 9 10 11 12 13 14 15 16 17 18 19 20 21 22 23 24 25 26 27 28 29 30 31 32 33 34 35 36 37 38 39 40 41 42 43 44 45 46 47 48 49 50
000
NZUS99 KSGF 232107
HRRSGF

HOURLY WEATHER
NATIONAL WEATHER SERVICE SPRINGFIELD MO
400 PM CDT SUN JUL 23 2017

......SGF CWA......

CITY           SKY/WX    TMP DP  RH WIND       PRES   REMARKS
SPRINGFIELD    CLOUDY    87  68  52 W6        29.92F HX  90
JOPLIN         MOSUNNY   96  65  35 W9        29.91S HX  98
WEST PLAINS    CLOUDY    92  61  35 NE6       29.90F HX  92
ROLLA          MOSUNNY   86  71  60 SW7       29.90F HX  91
OSAGE BEACH    MOSUNNY   92  64  39 VRB3      29.90F HX  93
BRANSON        PTSUNNY   91  63  38 N6        29.92R HX  92

......SURROUNDING SGF CWA......

CITY           SKY/WX    TMP DP  RH WIND       PRES   REMARKS
CHANUTE        MOSUNNY   89  71  55 W5        29.92F HX  95
PARSONS        MOSUNNY   91  68  46 MISG      29.92F HX  95
COFFEYVILLE    SUNNY     93  68  43 NW8       29.90F HX  97
EMPORIA        PTSUNNY   90  69  50 CALM      29.93F HX  94
GROVE OK       CLOUDY    90  72  55 CALM      29.91F HX  96
ROGERS AR      CLOUDY    85  72  65 NE6       29.94S HX  91
SILOAM SPRINGS CLOUDY    79  66  65 SW16      29.95R
HARRISON AR    CLOUDY    91  65  41 VRB6      29.92R HX  93
NEAR YELLVILLE CLOUDY    93  64  38 N5        29.85F HX  95

......KANSAS AND MISSOURI......

CITY           SKY/WX    TMP DP  RH WIND       PRES   REMARKS
KANSAS CTY INT MOSUNNY   91  74  57 CALM      29.91F HX 100
DOWNTOWN KC    PTSUNNY   92  74  55 NE5       29.89F HX 101
COLUMBIA       SUNNY     89  68  49 VRB3      29.90F HX  93
SEDALIA        SUNNY     91  77  63 NW6       29.91F HX 104
ST JOSEPH      SUNNY     91  77  63 NW8       29.90F HX 104
ST LOUIS       PTSUNNY   93  65  39 W8G20     29.87  HX  95
SPIRIT OF STL  MOSUNNY   89  70  53 VRB3      29.86F HX  94
KIRKSVILLE     MOSUNNY   93  67  42 VRB6      29.88F HX  96
WICHITA        MOSUNNY   93  69  45 NW10      29.93F HX  98
TOPEKA         MOSUNNY   93  71  48 CALM      29.91F HX 100
OLATHE         MOSUNNY   88  74  63 W6        29.91F HX  96

......TENNESSEE......

CITY           SKY/WX    TMP DP  RH WIND       PRES   REMARKS
MEMPHIS        MOSUNNY   94  76  55 S12       29.84S HX 106
NASHVILLE      MOSUNNY   95  73  48 W9        29.84F HX 104

......ARKANSAS.......

CITY           SKY/WX    TMP DP  RH WIND       PRES   REMARKS
FAYETTEVILLE   CLOUDY    74  72  93 S6        29.95R
FT SMITH       PTSUNNY   85  69  58 N25G36    29.86R
LITTLE ROCK    LGT RAIN  83  75  77 CALM      29.84S HX  90

......OKLAHOMA.......

CITY           SKY/WX    TMP DP  RH WIND       PRES   REMARKS
TULSA          MOSUNNY   95  70  44 N9        29.86F HX 101
PONCA CITY     CLOUDY    93  66  40 SE6       29.90F HX  96
MCALESTER      SUNNY     97  75  49 SW6       29.84F HX 109
OKLAHOMA CITY  PTSUNNY   94  68  42 NE9       29.87F THUNDER HX  98

......IOWA............

CITY           SKY/WX    TMP DP  RH WIND       PRES   REMARKS
DES MOINES     MOSUNNY   87  61  41 N16G23    29.90S
QUAD CITIES    SUNNY     87  64  46 W16G25    29.82R

......ILLINOIS........

CITY           SKY/WX    TMP DP  RH WIND       PRES   REMARKS
QUINCY         PTSUNNY   92  68  45 NW9       29.84F HX  96
CHICAGO        CLOUDY    88  62  41 W13G21    29.75F




USA.gov is the U.S. government's official web portal to all federal, state and local government web resources and services.